This is the latest recevied weather packets stored in our database for station/object SQ6ELQ-11. If no packets are shown the sender has not sent any weather packets the latest 10 day(s).
| Time | Temp. | Humidity | Pressure | Rain* | Wind** | Luminosity | Snow |
|---|---|---|---|---|---|---|---|
| 1777389334 | 12.78° C | 14% | 1022.7 hPa | 0 mm | - | - | - |
| 1777383917 | 13.33° C | 15% | 1022.9 hPa | 0 mm | - | - | - |
| 1777381729 | 13.33° C | 22% | 1023.2 hPa | 0 mm | - | - | - |
| 1777380676 | 13.33° C | 26% | 1023.3 hPa | 0 mm | - | - | - |
| 1777378590 | 12.78° C | 28% | 1023.2 hPa | 0 mm | - | - | - |
| 1777374319 | 10.56° C | 34% | 1023.5 hPa | 0 mm | - | - | - |
| 1777372136 | 10° C | 35% | 1023.5 hPa | 0 mm | - | - | - |
| 1777371161 | 10° C | 35% | 1023.5 hPa | 0 mm | - | - | - |
| 1777370176 | 10° C | 36% | 1023.6 hPa | 0 mm | - | - | - |
| 1777369131 | 8.89° C | 36% | 1023.6 hPa | 0 mm | - | - | - |
| 1777364821 | 7.78° C | 39% | 1023.5 hPa | 0 mm | - | - | - |
| 1777363752 | 7.22° C | 41% | 1023.4 hPa | 0 mm | - | - | - |
| 1777362665 | 6.67° C | 41% | 1023.4 hPa | 0 mm | - | - | - |
| 1777361513 | 6.11° C | 43% | 1023.2 hPa | 0 mm | - | - | - |
| 1777360461 | 5.56° C | 44% | 1023.2 hPa | 0 mm | - | - | - |
| 1777359486 | 5.56° C | 45% | 1023.2 hPa | 0 mm | - | - | - |
| 1777358356 | 5° C | 47% | 1023.1 hPa | 0 mm | - | - | - |
| 1777357304 | 4.44° C | 49% | 1023.1 hPa | 0 mm | - | - | - |
| 1777356261 | 3.33° C | 51% | 1023 hPa | 0 mm | - | - | - |
| 1777354116 | 2.78° C | 54% | 1022.9 hPa | 0 mm | - | - | - |
| 1777353032 | 1.67° C | 55% | 1023 hPa | 0 mm | - | - | - |
| 1777350751 | 0° C | 58% | 1022.5 hPa | 0 mm | - | - | - |
| 1777349638 | 0° C | 61% | 1022.4 hPa | 0 mm | - | - | - |
| 1777348471 | -0.56° C | 63% | 1022.4 hPa | 0 mm | - | - | - |
| 1777347311 | -0.56° C | 62% | 1022.3 hPa | 0 mm | - | - | - |
* Rain latest hour (hover to see other rain measurements)
** Current wind speed in m/s (hover to see current wind gust speed)